• In Hungary
  • List of Countries
  • For 7 days
  • Water Temperature
  • Satellite Maps
  • Weather Map
  • News
  • Weather Widgets
  • user-avatar
    Login

    Hourly Weather Asuan

    Today, 18 September, Tuesday

    Time Temperature Precipitation Wind Pressure Humidity
    00:00 +33°C° 0 mm 6 mps 740 mmHg 29%
    01:00 +32°C° 0 mm 6 mps 740 mmHg 30%
    02:00 +32°C° 0 mm 6 mps 739 mmHg 31%
    03:00 +30°C° 0 mm 6 mps 740 mmHg 32%
    04:00 +30°C° 0 mm 6 mps 740 mmHg 33%
    05:00 +29°C° 0 mm 5 mps 740 mmHg 35%
    06:00 +30°C° 0 mm 6 mps 740 mmHg 32%
    07:00 +32°C° 0 mm 6 mps 741 mmHg 30%
    08:00 +33°C° 0 mm 7 mps 741 mmHg 29%
    09:00 +35°C° 0 mm 6 mps 741 mmHg 26%
    10:00 +36°C° 0 mm 6 mps 741 mmHg 22%
    11:00 +39°C° 0 mm 6 mps 741 mmHg 19%
    12:00 +40°C° 0 mm 6 mps 741 mmHg 18%
    13:00 +41°C° 0 mm 6 mps 740 mmHg 16%
    14:00 +42°C° 0 mm 6 mps 740 mmHg 15%
    15:00 +42°C° 0 mm 6 mps 739 mmHg 16%
    16:00 +41°C° 0 mm 6 mps 739 mmHg 16%
    17:00 +41°C° 0 mm 6 mps 739 mmHg 16%
    18:00 +39°C° 0 mm 5 mps 740 mmHg 18%
    19:00 +37°C° 0 mm 5 mps 740 mmHg 20%
    20:00 +36°C° 0 mm 5 mps 740 mmHg 22%
    21:00 +35°C° 0 mm 5 mps 741 mmHg 24%
    22:00 +34°C° 0 mm 5 mps 741 mmHg 25%
    23:00 +34°C° 0 mm 5 mps 741 mmHg 27%

    Tomorrow, 19 September, Wednesday

    Time Temperature Precipitation Wind Pressure Humidity
    00:00 +33°C° 0 mm 5 mps 741 mmHg 28%
    01:00 +33°C° 0 mm 5 mps 741 mmHg 29%
    02:00 +32°C° 0 mm 5 mps 741 mmHg 30%
    03:00 +32°C° 0 mm 5 mps 741 mmHg 30%
    04:00 +30°C° 0 mm 4 mps 740 mmHg 31%
    05:00 +30°C° 0 mm 4 mps 740 mmHg 32%
    06:00 +32°C° 0 mm 5 mps 741 mmHg 29%
    07:00 +33°C° 0 mm 6 mps 741 mmHg 27%
    08:00 +34°C° 0 mm 6 mps 741 mmHg 25%
    09:00 +36°C° 0 mm 6 mps 741 mmHg 22%
    10:00 +39°C° 0 mm 5 mps 741 mmHg 20%
    11:00 +40°C° 0 mm 5 mps 741 mmHg 17%
    12:00 +41°C° 0 mm 5 mps 740 mmHg 16%
    13:00 +42°C° 0 mm 5 mps 740 mmHg 15%
    14:00 +43°C° 0 mm 5 mps 740 mmHg 14%
    15:00 +43°C° 0 mm 5 mps 739 mmHg 14%
    16:00 +42°C° 0 mm 5 mps 739 mmHg 14%
    17:00 +42°C° 0 mm 5 mps 739 mmHg 14%
    18:00 +41°C° 0 mm 5 mps 739 mmHg 16%
    19:00 +38°C° 0 mm 4 mps 740 mmHg 17%
    20:00 +37°C° 0 mm 4 mps 740 mmHg 19%
    21:00 +36°C° 0 mm 4 mps 740 mmHg 20%
    22:00 +36°C° 0 mm 5 mps 740 mmHg 21%
    23:00 +35°C° 0 mm 5 mps 741 mmHg 22%

    Day after tomorrow, 20 September, Thursday

    Time Temperature Precipitation Wind Pressure Humidity
    00:00 +35°C° 0 mm 5 mps 740 mmHg 23%
    01:00 +34°C° 0 mm 5 mps 740 mmHg 25%
    02:00 +34°C° 0 mm 5 mps 740 mmHg 26%
    03:00 +33°C° 0 mm 5 mps 740 mmHg 27%
    04:00 +32°C° 0 mm 5 mps 740 mmHg 28%
    05:00 +32°C° 0 mm 5 mps 740 mmHg 30%
    06:00 +33°C° 0 mm 5 mps 740 mmHg 28%
    07:00 +34°C° 0 mm 6 mps 741 mmHg 26%
    08:00 +35°C° 0 mm 7 mps 741 mmHg 24%
    09:00 +38°C° 0 mm 7 mps 741 mmHg 21%
    10:00 +40°C° 0 mm 7 mps 741 mmHg 18%
    11:00 +42°C° 0 mm 6 mps 741 mmHg 16%
    12:00 +44°C° 0 mm 6 mps 740 mmHg 15%
    13:00 +45°C° 0 mm 6 mps 739 mmHg 14%
    14:00 +45°C° 0 mm 6 mps 739 mmHg 13%
    15:00 +45°C° 0 mm 6 mps 739 mmHg 14%
    16:00 +44°C° 0 mm 6 mps 738 mmHg 14%
    17:00 +44°C° 0 mm 6 mps 738 mmHg 14%
    18:00 +41°C° 0 mm 6 mps 739 mmHg 15%
    19:00 +40°C° 0 mm 5 mps 739 mmHg 17%
    20:00 +39°C° 0 mm 5 mps 740 mmHg 18%
    21:00 +37°C° 0 mm 5 mps 740 mmHg 19%
    22:00 +36°C° 0 mm 6 mps 740 mmHg 21%
    23:00 +35°C° 0 mm 6 mps 740 mmHg 22%

    21 September, Friday

    Time Temperature Precipitation Wind Pressure Humidity
    00:00 +35°C° 0 mm 6 mps 740 mmHg 23%
    01:00 +34°C° 0 mm 6 mps 740 mmHg 25%
    02:00 +33°C° 0 mm 6 mps 739 mmHg 26%
    03:00 +33°C° 0 mm 6 mps 739 mmHg 27%
    04:00 +32°C° 0 mm 6 mps 739 mmHg 29%
    05:00 +32°C° 0 mm 5 mps 740 mmHg 31%
    06:00 +33°C° 0 mm 6 mps 740 mmHg 29%
    07:00 +34°C° 0 mm 6 mps 741 mmHg 27%
    08:00 +35°C° 0 mm 6 mps 741 mmHg 25%
    09:00 +36°C° 0 mm 6 mps 741 mmHg 22%
    10:00 +39°C° 0 mm 6 mps 741 mmHg 20%
    11:00 +41°C° 0 mm 6 mps 741 mmHg 17%
    12:00 +42°C° 0 mm 6 mps 740 mmHg 16%
    13:00 +44°C° 0 mm 6 mps 740 mmHg 15%
    14:00 +45°C° 0 mm 6 mps 739 mmHg 14%
    15:00 +44°C° 0 mm 6 mps 739 mmHg 14%
    16:00 +44°C° 0 mm 6 mps 739 mmHg 15%
    17:00 +42°C° 0 mm 6 mps 739 mmHg 15%
    18:00 +41°C° 0 mm 6 mps 739 mmHg 16%
    19:00 +40°C° 0 mm 6 mps 740 mmHg 18%
    20:00 +37°C° 0 mm 5 mps 740 mmHg 19%
    21:00 +36°C° 0 mm 6 mps 740 mmHg 20%
    22:00 +36°C° 0 mm 6 mps 741 mmHg 21%
    23:00 +35°C° 0 mm 6 mps 741 mmHg 22%

    22 September, Saturday

    Time Temperature Precipitation Wind Pressure Humidity
    00:00 +34°C° 0 mm 6 mps 741 mmHg 22%
    01:00 +33°C° 0 mm 6 mps 740 mmHg 23%
    02:00 +33°C° 0 mm 6 mps 740 mmHg 23%
    03:00 +32°C° 0 mm 6 mps 740 mmHg 24%
    04:00 +32°C° 0 mm 5 mps 741 mmHg 25%
    05:00 +30°C° 0 mm 5 mps 741 mmHg 26%
    06:00 +32°C° 0 mm 6 mps 741 mmHg 25%
    07:00 +33°C° 0 mm 6 mps 741 mmHg 24%
    08:00 +34°C° 0 mm 7 mps 742 mmHg 23%
    09:00 +36°C° 0 mm 7 mps 742 mmHg 21%
    10:00 +39°C° 0 mm 6 mps 741 mmHg 18%
    11:00 +41°C° 0 mm 6 mps 741 mmHg 16%
    12:00 +42°C° 0 mm 6 mps 740 mmHg 15%
    13:00 +44°C° 0 mm 6 mps 740 mmHg 14%
    14:00 +45°C° 0 mm 5 mps 739 mmHg 13%
    15:00 +43°C° 0 mm 5 mps 739 mmHg 13%
    16:00 +44°C° 0 mm 6 mps 739 mmHg 13%
    17:00 +44°C° 0 mm 6 mps 739 mmHg 14%
    18:00 +41°C° 0 mm 6 mps 740 mmHg 15%
    19:00 +39°C° 0 mm 6 mps 740 mmHg 17%
    20:00 +38°C° 0 mm 6 mps 741 mmHg 19%
    21:00 +36°C° 0 mm 6 mps 741 mmHg 20%
    22:00 +35°C° 0 mm 7 mps 741 mmHg 21%
    23:00 +34°C° 0 mm 7 mps 741 mmHg 22%

    23 September, Sunday

    Time Temperature Precipitation Wind Pressure Humidity
    00:00 +34°C° 0 mm 7 mps 741 mmHg 22%
    01:00 +33°C° 0 mm 7 mps 741 mmHg 22%
    02:00 +32°C° 0 mm 7 mps 740 mmHg 22%
    03:00 +32°C° 0 mm 6 mps 741 mmHg 23%
    04:00 +32°C° 0 mm 6 mps 741 mmHg 23%
    05:00 +30°C° 0 mm 5 mps 741 mmHg 24%
    06:00 +32°C° 0 mm 6 mps 741 mmHg 23%
    07:00 +33°C° 0 mm 6 mps 742 mmHg 22%
    08:00 +34°C° 0 mm 7 mps 742 mmHg 21%
    09:00 +36°C° 0 mm 6 mps 742 mmHg 19%
    10:00 +39°C° 0 mm 6 mps 742 mmHg 17%
    11:00 +40°C° 0 mm 6 mps 741 mmHg 15%
    12:00 +41°C° 0 mm 6 mps 741 mmHg 14%
    13:00 +42°C° 0 mm 5 mps 740 mmHg 13%
    14:00 +43°C° 0 mm 5 mps 739 mmHg 12%
    15:00 +43°C° 0 mm 5 mps 739 mmHg 13%
    16:00 +44°C° 0 mm 6 mps 739 mmHg 13%
    17:00 +42°C° 0 mm 6 mps 739 mmHg 14%
    18:00 +41°C° 0 mm 6 mps 740 mmHg 16%
    19:00 +39°C° 0 mm 6 mps 740 mmHg 18%
    20:00 +36°C° 0 mm 6 mps 741 mmHg 20%
    21:00 +35°C° 0 mm 6 mps 741 mmHg 21%
    22:00 +35°C° 0 mm 6 mps 741 mmHg 22%
    23:00 +34°C° 0 mm 7 mps 741 mmHg 22%
    Show more